Regional Weather Roundup
Issued by NWS

Home | Current Version | Previous Version | Text Only | Print | Product List | Glossary On
Versions: 1 2 3 4 5 6 7 8 9 10 11 12 13 14 15 16 17 18 19 20 21 22 23 24 25 26 27 28 29 30 31 32 33 34 35 36 37 38 39 40 41 42 43 44 45 46 47 48 49 50
611
ASUS43 KLMK 060102
RWRKY
KENTUCKY REGIONAL WEATHER ROUNDUP
NATIONAL WEATHER SERVICE LOUISVILLE KY
800 PM EST MON DEC 05 2016

NOTE "FAIR" INDICATES FEW OR NO CLOUDS BELOW 12,000 FEET
WITH NO SIGNIFICANT WEATHER AND/OR OBSTRUCTIONS TO VISIBILITY.

KYZ001>023-026-027-061>063-070>075-060200-
WESTERN AND SOUTH CENTRAL KENTUCKY

CITY           SKY/WX    TMP DP  RH WIND       PRES   REMARKS
PADUCAH        CLOUDY    42  36  79 E8        29.86F
HENDERSON      MOCLDY    39  34  81 E7        29.91S WCI  34
OWENSBORO      CLOUDY    41  35  79 E8        29.91F
HOPKINSVILLE   CLOUDY    43  40  89 E9        29.87S
BOWLING GREEN  CLOUDY    44  39  82 NE8       29.91S
GLASGOW        NOT AVBL
$$

KYZ024-025-028>034-038-045-046-053-060200-
NORTH CENTRAL KENTUCKY

CITY           SKY/WX    TMP DP  RH WIND       PRES   REMARKS
LOUISVILLE/SDF CLOUDY    43  34  70 E6        29.94F
LOUISVILLE/LOU MOCLDY    43  34  70 NE7       29.95F
FORT KNOX      CLOUDY    42  35  77 E8        29.91F
$$

KYZ035>037-039>044-047>052-055>060-089>105-060200-
NORTHEAST KENTUCKY

CITY           SKY/WX    TMP DP  RH WIND       PRES   REMARKS
LEXINGTON      CLOUDY    43  34  70 E9        29.95F
COVINGTON      CLOUDY    41  34  76 E9        29.97F
FRANKFORT      CLOUDY    42  34  73 NE6       29.95S
$$

KYZ054-064>069-076>088-106>120-060200-
SOUTHEAST KENTUCKY

CITY           SKY/WX    TMP DP  RH WIND       PRES   REMARKS
JACKSON        CLOUDY    44  36  73 VRB5      29.95F
LONDON         CLOUDY    46  38  73 E6        29.94S
SOMERSET       NOT AVBL
MIDDLESBORO    DRIZZLE   48  45  89 CALM      29.95F
MONTICELLO     CLOUDY    47  41  80 VRB7      29.92F
$$





USA.gov is the U.S. government's official web portal to all federal, state and local government web resources and services.